DW4738 Weather Reports


Display with metric or nautical units.
time (UTC)temp
F
wind
direction
speed
MPH
gust
MPH
rain 1hr
in
rain 24hr
in
rain mn
in
humidity
%
barometer
mb
20260505153040 53 0.0 3.0 0.00 0.00 0.00 85 1013.5
20260505123042 52 0.0 1.0 0.00 0.00 0.00 83 1012.7
20260505120022 52 0.0 2.0 0.00 0.00 0.00 83 1012.9
20260505113022 52 0.0 2.0 0.00 0.00 0.00 83 1012.8
20260505100022 53 0.0 2.0 0.00 0.00 0.00 84 1012.8
20260505093022 53 0.0 3.0 0.00 0.00 0.00 84 1012.9
20260505090022 53 0.0 5.0 0.00 0.00 0.00 85 1013.3
20260505083022 53 0.0 3.0 0.00 0.00 0.00 86 1013.3
20260505080042 53 0.0 3.0 0.00 0.00 0.00 86 1013.5
20260505073020 53 0.0 2.0 0.00 0.00 0.00 85 1013.3
20260505070018 53 0.0 4.0 0.00 0.00 0.00 84 1013.2
20260505063041 54 315 1.0 6.0 0.00 0.00 0.00 83 1013.0
20260505060016 54 315 1.0 5.0 0.00 0.00 0.00 81 1013.1
20260505053020 55 337 1.0 3.0 0.00 0.00 0.00 79 1013.4
20260505040022 57 315 1.0 4.0 0.00 0.00 0.00 75 1012.7
20260505033022 57 0.0 4.0 0.00 0.00 0.00 75 1012.3
20260505030023 58 292 1.0 5.0 0.00 0.00 0.00 72 1012.4
20260505023022 59 270 2.0 7.0 0.00 0.00 0.00 69 1012.2
20260505020017 61 225 2.0 8.0 0.00 0.00 0.00 66 1012.1
20260505013022 61 270 3.0 9.0 0.00 0.00 0.00 63 1012.4
20260505010023 62 270 3.0 9.0 0.00 0.00 0.00 61 1012.6
20260505003021 64 270 4.0 11.0 0.00 0.00 0.00 60 1012.6
20260505000022 65 247 3.0 10.0 0.00 0.00 0.00 61 1012.4
20260504233043 66 292 3.0 10.0 0.00 0.00 0.00 61 1012.5
20260504230022 64 292 3.0 10.0 0.00 0.00 0.00 61 1012.7
20260504223022 64 292 4.0 11.0 0.00 0.00 0.00 61 1012.8
20260504220042 63 292 4.0 11.0 0.00 0.00 0.00 62 1013.2
20260504213021 62 270 4.0 10.0 0.00 0.00 0.00 65 1013.4
20260504210021 60 270 1.0 7.0 0.00 0.00 0.00 69 1013.6
20260504203017 61 180 1.0 3.0 0.00 0.00 0.00 69 1013.6
20260504200022 61 247 2.0 9.0 0.00 0.00 0.00 71 1013.7
20260504193102 61 247 3.0 9.0 0.00 0.00 0.00 73 1013.7
20260504190021 59 180 2.0 7.0 0.00 0.00 0.00 78 1013.9
20260504183022 57 180 2.0 5.0 0.00 0.00 0.00 81 1013.9
20260504180022 57 180 2.0 5.0 0.00 0.00 0.00 82 1013.7
20260504173022 57 180 2.0 4.0 0.00 0.00 0.00 80 1013.3